Location: Grasslands National Park East Block
(49.0708°N, 106.5295°W)
Time: 23:53:12
(UTC-06:00)

Vanguard 1 - Pass Details

Date: 23 September 2019
Orbit: 653 x 3830 km, 34.2° (Epoch: 20 October)

Event Time Altitude Azimuth Distance (km) Brightness Sun altitude
Rises 06:21:44 0° 267° (W) 7,960 - -6.1°
Exits shadow 06:25:19 - 264° (W) 7,283 13.8 -5.5°
Reaches altitude 10° 06:27:47 10° 262° (W) 6,808 13.6 -5.1°
Maximum altitude 06:46:54 43° 201° (SSW) 3,637 12.8 -2.0°
Drops below altitude 10° 06:59:03 10° 135° (SE) 4,432 14.2 0.0°
Sets 07:02:03 0° 129° (SE) 5,071 14.7 0.5°
